Overview Statistics Trail Chart Weather Telemetry Raw packets
 

This is the latest recevied weather packets stored in our database for station/object K0QED. If no packets are shown the sender has not sent any weather packets the latest 10 day(s).

<< 110 111 112 113 114 >>
Time Temp. Humidity Pressure Rain* Wind** Luminosity Snow
1787790006 19.44° C 57% 1031.2 hPa 0 mm - 31 W/m² -
1787789702 19.44° C 58% 1031.4 hPa 0 mm - 21 W/m² -
1787789396 19.44° C 57% 1031.2 hPa 0 mm - 17 W/m² -
1787789091 20° C 57% 1031.1 hPa 0 mm - 17 W/m² -
1787788789 20° C 55% 1030.9 hPa 0 mm - 17 W/m² -
1787788483 20° C 54% 1030.7 hPa 0 mm - 24 W/m² -
1787788178 20° C 53% 1030.7 hPa 0 mm - 28 W/m² -
1787787873 20° C 52% 1030.5 hPa 0 mm - 32 W/m² -
1787787572 20° C 51% 1030.9 hPa 0 mm - 35 W/m² -
1787787267 20° C 55% 1031 hPa 0 mm - 33 W/m² -
1787786966 19.44° C 59% 1030.7 hPa 0 mm - 34 W/m² -
1787786662 19.44° C 62% 1030.7 hPa 0 mm - 23 W/m² -
1787786360 19.44° C 65% 1031.1 hPa 0 mm - 14 W/m² -
1787786057 19.44° C 65% 1031 hPa 0 mm - 11 W/m² -
1787785753 19.44° C 65% 1031.1 hPa 0 mm - 10 W/m² -
1787785448 19.44° C 68% 1030.9 hPa 0 mm - 10 W/m² -
1787785147 19.44° C 68% 1031 hPa 0 mm - 11 W/m² -
1787784842 20° C 67% 1031.6 hPa 0 mm - 10 W/m² -
1787784541 20° C 66% 1031.6 hPa 0 mm - 10 W/m² -
1787784235 20.56° C 64% 1032.1 hPa 0 mm - 9 W/m² -
1787783931 20.56° C 60% 1031.7 hPa 0 mm - 9 W/m² -
1787783627 20.56° C 60% 1031.9 hPa 0 mm - 8 W/m² -
1787783326 20.56° C 60% 1032 hPa 0 mm - 8 W/m² -
1787783022 21.11° C 60% 1032.1 hPa 0 mm - 10 W/m² -
1787782721 21.11° C 60% 1032 hPa 0 mm - 11 W/m² -

* Rain latest hour (hover to see other rain measurements)
** Current wind speed in m/s (hover to see current wind gust speed)